Weather History for KYKM - May, 2013

Change the Weather History Date:

Friday, May 10, 2013

  Actual Average Record
Temperature  
Mean Temperature 75 °F 56 °F  
Max Temperature 97 °F 71 °F 97 °F (2013)
Min Temperature 52 °F 40 °F 25 °F (1999)
Degree Days  
Heating Degree Days 0 10  
Month to date heating degree days 31 111  
Since 1 July heating degree days 4987 5793  
Cooling Degree Days 10 0  
Month to date cooling degree days 37 0  
Year to date cooling degree days 38 1  
Growing Degree Days 24 (Base 50)    
Moisture  
Dew Point 42 °F    
Average Humidity 40    
Maximum Humidity 66    
Minimum Humidity 13    
Precipitation  
Precipitation 0.00 in 0.02 in 0.33 in (1951)
Month to date precipitation 0.00 0.18  
Year to date precipitation 1.30 3.27  
Snow  
Snow 0.00 in 0.00 in 0.00 in (2002)
Month to date snowfall 0.0 0.0  
Year to date snowfall 1.1 8.6  
Since 1 July snowfall 15.3 21.6  
Snow Depth 0.00 in    
Sea Level Pressure  
Sea Level Pressure 30.07 in    
Wind  
Wind Speed 6 mph (West)    
Max Wind Speed 13 mph    
Max Gust Speed -    
Visibility 10 miles    
Events      
T = Trace of Precipitation, MM = Missing Value Source: NWS Daily Summary

Daily Weather History Graph

Daily Weather History Graph

Search for Another Location

Airport or City:

Trip Planner

Search our weather history database for the weather conditions in past years. The results will help you decide how hot, cold, wet, or windy it might be!

Date:

Astronomy

May. 10, 2013 Rise Set
Actual Time 5:34 AM PDT 8:23 PM PDT
Civil Twilight 4:59 AM PDT 8:58 PM PDT
Nautical Twilight 4:14 AM PDT 9:43 PM PDT
Astronomical Twilight 3:22 AM PDT 10:36 PM PDT
Moon 6:01 AM PDT (5/10) 9:19 PM PDT (5/10)
Length of Visible Light 15h 59m
Length of Day
14h 49m
New Moon, 1% of the Moon is Illuminated
May 10
New Moon
May 17
First Quarter
May 24
Full
May 31
Last Quarter
Jun 8
New

Hourly Weather History & Observations

Time (PDT) Temp. Dew Point Humidity Pressure Visibility Wind Dir Wind Speed Gust Speed Precip Events Conditions
12:53 AM 70.0 °F 39.0 °F 32% 30.06 in 10.0 mi WNW 5.8 mph - N/A   Clear
1:53 AM 66.0 °F 41.0 °F 40% 30.06 in 10.0 mi NW 5.8 mph - N/A   Clear
2:53 AM 64.0 °F 41.0 °F 43% 30.08 in 10.0 mi West 8.1 mph - N/A   Clear
3:53 AM 61.0 °F 41.0 °F 48% 30.09 in 10.0 mi West 8.1 mph - N/A   Clear
4:53 AM 55.4 °F 42.8 °F 63% 30.11 in 10.0 mi West 5.8 mph - N/A   Clear
5:53 AM 53.6 °F 42.8 °F 67% 30.12 in 10.0 mi WSW 8.1 mph - N/A   Clear
6:53 AM 61.0 °F 41.0 °F 48% 30.11 in 10.0 mi West 8.1 mph - N/A   Clear
7:53 AM 66.0 °F 42.1 °F 42% 30.12 in 10.0 mi West 9.2 mph - N/A   Clear
8:53 AM 71.1 °F 42.1 °F 35% 30.12 in 10.0 mi West 6.9 mph - N/A   Clear
9:53 AM 77.0 °F 41.0 °F 28% 30.10 in 10.0 mi West 4.6 mph - N/A   Clear
10:53 AM 82.9 °F 39.0 °F 21% 30.10 in 10.0 mi West 4.6 mph - N/A   Clear
11:53 AM 89.1 °F 37.0 °F 16% 30.09 in 10.0 mi North 3.5 mph - N/A   Partly Cloudy
12:53 PM 91.0 °F 37.9 °F 15% 30.06 in 10.0 mi Calm Calm - N/A   Scattered Clouds
1:53 PM 93.0 °F 39.0 °F 15% 30.05 in 10.0 mi NE 6.9 mph - N/A   Clear
2:53 PM 93.9 °F 36.0 °F 13% 30.04 in 10.0 mi East 3.5 mph - N/A   Partly Cloudy
3:53 PM 95.0 °F 37.0 °F 13% 30.02 in 10.0 mi SE 6.9 mph - N/A   Partly Cloudy
4:53 PM 95.0 °F 37.0 °F 13% 30.01 in 10.0 mi South 4.6 mph - N/A   Scattered Clouds
5:53 PM 93.0 °F 39.0 °F 15% 30.01 in 10.0 mi Variable 3.5 mph - N/A   Scattered Clouds
6:53 PM 91.0 °F 39.9 °F 17% 30.00 in 10.0 mi West 4.6 mph - N/A   Scattered Clouds
7:53 PM 82.9 °F 48.9 °F 31% 30.01 in 10.0 mi WSW 5.8 mph - N/A   Scattered Clouds
8:53 PM 78.1 °F 48.0 °F 35% 30.03 in 10.0 mi West 6.9 mph - N/A   Clear
9:53 PM 75.0 °F 48.9 °F 40% 30.06 in 10.0 mi West 5.8 mph - N/A   Clear
10:53 PM 73.9 °F 48.0 °F 40% 30.06 in 10.0 mi Calm Calm - N/A   Clear
11:53 PM 66.0 °F 48.9 °F 54% 30.08 in 10.0 mi WSW 4.6 mph - N/A   Clear